Location: Newark
(52.4787°S, 179.0532°W)
Time: 03:43:14
(UTC+00:00)

Transit 2A Rocket - Pass Details

Date: 21 November 2019
Orbit: 594 x 909 km, 66.7° (Epoch: 05 December)

Event Time Altitude Azimuth Distance (km) Brightness Sun altitude
Rises 02:10:35 0° 235° (SW) 3,534 8.6 46.5°
Reaches altitude 10° 02:13:41 10° 220° (SW) 2,616 7.9 46.1°
Maximum altitude 02:18:25 23° 170° (S) 1,881 7.0 45.5°
Drops below altitude 10° 02:23:09 10° 119° (ESE) 2,610 7.4 44.9°
Sets 02:26:15 0° 104° (ESE) 3,525 8.0 44.5°
